User: anonymous   Login
Location: Unspecified
(0.0000°N, 0.0000°E)
Time: 09:54:30
(UTC+00:00)
Language:

APRIZESAT 1 (LATINSAT C) - Orbit

View from above orbital plane
View from above orbital plane
View from above satellite
View from above satellite

Ground track
Ground track

The orbit data is extracted from the following two-line orbital elements,

1 28372U 04025G   24110.93178132  .00001607  00000-0  41665-3 0  9994
2 28372  98.5882  91.0537 0045852  33.0882 327.3166 14.50586577 47576
Epoch (UTC): 19 April 2024 22:21:45
Eccentricity: 0.0045852
inclination: 98.5882°
perigee height: 691 km
apogee height: 756 km
right ascension of ascending node: 91.0537°
argument of perigee: 33.0882°
revolutions per day: 14.50586577
mean anomaly at epoch: 327.3166°
orbit number at epoch: 4757

The dashed part of the orbit path shows where the satellite is in the earth's shadow,  

DLR